Peru, IL

2:00 PM CST on December 13, 2017 (GMT -0600)
Illinois Valley Regional-Duncan

Weather History for KVYS - January, 2014

Change the Weather History Date:

Friday, January 10, 2014

  Actual Average Record
Temperature  
Mean Temperature 34 °F -  
Max Temperature 39 °F 27 °F 59 °F (1975)
Min Temperature 29 °F 9 °F -20 °F (1982)
Degree Days  
Heating Degree Days 31    
Moisture  
Dew Point 34 °F    
Average Humidity 98    
Maximum Humidity 100    
Minimum Humidity 97    
Precipitation  
Precipitation 0.61 in - - ()
Sea Level Pressure  
Sea Level Pressure 29.82 in    
Wind  
Wind Speed 10 mph (SSE)    
Max Wind Speed 21 mph    
Max Gust Speed 26 mph    
Visibility 2 miles    
Events Fog , Rain    
Averages and records for this station are not official NWS values.
T = Trace of Precipitation, MM = Missing Value Source: NWS Daily Summary

Daily Weather History Graph

Daily Weather History Graph

Search for Another Location

Airport or City:

Trip Planner

Search our weather history database for the weather conditions in past years. The results will help you decide how hot, cold, wet, or windy it might be!

Date:

Astronomy

Jan. 10, 2014 Rise Set
Actual Time 7:21 AM CST 4:46 PM CST
Civil Twilight 6:51 AM CST 5:17 PM CST
Nautical Twilight 6:16 AM CST 5:51 PM CST
Astronomical Twilight 5:43 AM CST 6:25 PM CST
Moon 12:51 PM CST (1/10) 2:28 AM CST (1/10)
Length of Visible Light 10h 26m
Length of Day
9h 24m
Waxing Gibbous, 75% of the Moon is Illuminated
Jan 10
Waxing Gibbous
Jan 15
Full
Jan 23
Last Quarter
Jan 30
New
Feb 6
First Quarter

Hourly Weather History & Observations

Time (CST) Temp. Windchill Dew Point Humidity Pressure Visibility Wind Dir Wind Speed Gust Speed Precip Events Conditions
12:15 AM 29.8 °F 22.2 °F 29.3 °F 98% 30.12 in 0.5 mi South 8.1 mph - N/A Fog Light Freezing Fog
12:35 AM 30.2 °F 22.6 °F 29.7 °F 98% 30.11 in 0.5 mi South 8.1 mph - N/A Fog Light Freezing Fog
12:55 AM 30.2 °F 22.6 °F 29.7 °F 98% 30.11 in 0.5 mi South 8.1 mph - N/A Fog Light Freezing Fog
1:15 AM 30.4 °F 22.9 °F 29.8 °F 98% 30.10 in 0.5 mi South 8.1 mph - N/A Fog Light Freezing Fog
1:35 AM 30.7 °F 23.3 °F 30.2 °F 98% 30.10 in 0.5 mi South 8.1 mph - N/A Fog Light Freezing Fog
1:55 AM 30.9 °F 23.5 °F 30.2 °F 97% 30.10 in 0.5 mi South 8.1 mph - N/A Fog Light Freezing Fog
2:15 AM 30.9 °F 22.8 °F 30.2 °F 97% 30.10 in 0.5 mi South 9.2 mph - N/A Fog Light Freezing Fog
2:35 AM 31.1 °F 23.1 °F 30.7 °F 99% 30.10 in 0.5 mi South 9.2 mph - N/A Fog Light Freezing Fog
2:55 AM 31.1 °F 23.7 °F 30.9 °F 99% 30.09 in 0.5 mi South 8.1 mph - N/A Fog Light Freezing Fog
3:15 AM 31.3 °F 23.9 °F 31.1 °F 99% 30.08 in 0.5 mi South 8.1 mph - N/A Fog Light Freezing Fog
3:35 AM 31.6 °F 24.4 °F 31.1 °F 98% 30.07 in 0.5 mi South 8.1 mph - N/A Fog Light Freezing Fog
3:55 AM 31.6 °F 25.1 °F 31.1 °F 98% 30.07 in 0.8 mi South 6.9 mph - N/A   Overcast
4:15 AM 31.6 °F 26.0 °F 31.1 °F 98% 30.06 in 1.5 mi South 5.8 mph - N/A   Overcast
4:35 AM 31.6 °F 27.0 °F 31.1 °F 98% 30.06 in 2.5 mi SSE 4.6 mph - N/A   Overcast
4:55 AM 31.6 °F 27.0 °F 31.1 °F 98% 30.05 in 2.5 mi SSE 4.6 mph - N/A   Overcast
5:15 AM 31.6 °F 25.1 °F 31.1 °F 98% 30.05 in 1.8 mi SSE 6.9 mph - N/A   Overcast
5:35 AM 31.6 °F 26.0 °F 31.1 °F 98% 30.05 in 0.5 mi SSE 5.8 mph - N/A Fog Light Freezing Fog
5:55 AM 31.8 °F 26.2 °F 31.5 °F 99% 30.04 in 0.5 mi SE 5.8 mph - N/A Fog Fog
6:15 AM 32.0 °F 25.6 °F 31.8 °F 99% 30.05 in 0.8 mi SSE 6.9 mph - N/A   Overcast
6:35 AM 32.0 °F 24.8 °F 31.8 °F 99% 30.04 in 0.8 mi SSE 8.1 mph - N/A   Overcast
6:55 AM 32.0 °F 25.6 °F 31.8 °F 99% 30.03 in 0.8 mi SE 6.9 mph - N/A   Overcast
7:15 AM 32.0 °F 23.6 °F 31.8 °F 99% 30.03 in 0.8 mi SSE 10.4 mph - N/A   Overcast
7:35 AM 32.0 °F 27.5 °F 31.8 °F 99% 30.01 in 0.2 mi SE 4.6 mph - N/A Fog Fog
7:55 AM 32.0 °F 24.8 °F 31.8 °F 99% 30.02 in 0.2 mi SSE 8.1 mph - N/A Fog Fog
8:15 AM 32.0 °F 22.5 °F 32.0 °F 100% 30.01 in 0.5 mi SE 12.7 mph - N/A Fog Fog
8:35 AM 32.5 °F 22.7 °F 32.2 °F 99% 30.00 in 0.2 mi SSE 13.8 mph - N/A Fog Fog
8:55 AM 32.5 °F 23.7 °F 32.2 °F 99% 29.99 in 0.2 mi SE 11.5 mph - N/A Fog Fog
9:15 AM 32.5 °F 23.2 °F 32.2 °F 99% 29.98 in 0.2 mi SE 12.7 mph - N/A Fog Fog
9:35 AM 32.9 °F 23.2 °F 32.5 °F 99% 29.98 in 1.2 mi SE 13.8 mph 17.3 mph N/A   Overcast
9:55 AM 33.1 °F 23.9 °F 32.9 °F 99% 29.96 in 1.5 mi SE 12.7 mph - N/A   Overcast
10:15 AM 33.1 °F 23.4 °F 32.9 °F 99% 29.95 in 1.8 mi SSE 13.8 mph - N/A   Overcast
10:35 AM 33.3 °F 24.6 °F 32.9 °F 99% 29.94 in 2.0 mi SSE 11.5 mph - N/A   Overcast
10:55 AM 33.4 °F 23.9 °F 33.1 °F 99% 29.91 in 2.5 mi SSE 13.8 mph - N/A   Overcast
11:15 AM 34.2 °F 24.0 °F 33.8 °F 99% 29.88 in 1.2 mi SE 16.1 mph - N/A   Overcast
11:35 AM 34.3 °F 24.6 °F 34.0 °F 99% 29.85 in 1.5 mi SE 15.0 mph - N/A   Overcast
11:55 AM 34.3 °F 23.9 °F 34.0 °F 99% 29.84 in 2.5 mi SSE 17.3 mph 21.9 mph N/A   Overcast
12:35 PM 34.7 °F 24.3 °F 34.2 °F 98% 29.79 in 1.8 mi SE 17.3 mph 20.7 mph 0.02 in Rain Rain
12:55 PM 34.9 °F 23.6 °F 34.3 °F 98% 29.77 in 3.0 mi SE 20.7 mph - 0.04 in Rain Light Rain
1:15 PM 35.1 °F 23.8 °F 34.7 °F 99% 29.75 in 1.5 mi SSE 20.7 mph 26.5 mph 0.04 in Rain Rain
1:35 PM 35.1 °F 24.8 °F 34.7 °F 99% 29.74 in 4.0 mi SE 17.3 mph - 0.05 in Rain Light Rain
1:55 PM 35.6 °F 25.9 °F 35.1 °F 98% 29.71 in 3.0 mi SE 16.1 mph 24.2 mph 0.05 in Rain Light Rain
2:15 PM 35.6 °F 25.9 °F 34.9 °F 97% 29.70 in 3.0 mi SE 16.1 mph - 0.01 in Rain Light Rain
2:35 PM 36.0 °F 27.1 °F 35.4 °F 98% 29.70 in 4.0 mi SE 13.8 mph - 0.02 in   Light Drizzle
2:55 PM 36.5 °F 27.8 °F 35.6 °F 97% 29.70 in 2.5 mi SSE 13.8 mph 18.4 mph 0.04 in Rain Rain
3:15 PM 36.9 °F 28.7 °F 36.3 °F 98% 29.69 in 3.0 mi South 12.7 mph - 0.05 in Rain Rain
3:35 PM 36.9 °F 29.1 °F 36.5 °F 99% 29.68 in 4.0 mi South 11.5 mph 19.6 mph 0.08 in Rain Rain
3:55 PM 37.0 °F 29.3 °F 36.5 °F 98% 29.67 in 3.0 mi South 11.5 mph - 0.12 in Rain Rain
4:15 PM 36.9 °F 29.1 °F 36.5 °F 99% 29.66 in 4.0 mi South 11.5 mph - 0.03 in Rain Rain
4:35 PM 37.4 °F 28.9 °F 36.7 °F 97% 29.65 in 5.0 mi South 13.8 mph 20.7 mph 0.06 in Rain Rain
4:55 PM 37.8 °F 29.4 °F 37.4 °F 99% 29.65 in 5.0 mi South 13.8 mph 19.6 mph 0.11 in Rain Rain
5:15 PM 38.3 °F 30.5 °F 37.4 °F 97% 29.63 in 5.0 mi South 12.7 mph - 0.03 in Rain Rain
5:35 PM 38.5 °F 30.7 °F 37.9 °F 98% 29.62 in 5.0 mi South 12.7 mph - 0.08 in Rain Rain
5:55 PM 39.4 °F 33.2 °F 38.8 °F 98% 29.62 in 4.0 mi SSW 9.2 mph - 0.15 in Rain Rain
6:15 PM 39.2 °F 31.2 °F 38.7 °F 98% 29.60 in 7.0 mi South 13.8 mph - 0.02 in Rain Rain
6:35 PM 39.6 °F 32.5 °F 39.2 °F 99% 29.60 in 10.0 mi SSE 11.5 mph - 0.03 in   Light Drizzle
6:55 PM 38.3 °F 31.4 °F 37.8 °F 98% 29.59 in 7.0 mi South 10.4 mph - 0.03 in   Drizzle
7:15 PM 39.0 °F 31.0 °F 38.5 °F 98% 29.59 in 5.0 mi South 13.8 mph 17.3 mph 0.01 in   Light Drizzle
7:35 PM 39.0 °F 31.4 °F 38.3 °F 97% 29.57 in 5.0 mi South 12.7 mph - 0.01 in Rain Rain
7:55 PM 39.6 °F 30.6 °F 39.2 °F 99% 29.57 in 7.0 mi South 17.3 mph - 0.01 in   Overcast
8:15 PM 39.6 °F 31.7 °F 39.2 °F 99% 29.56 in 7.0 mi South 13.8 mph - N/A   Overcast
8:35 PM 39.2 °F 32.0 °F 38.8 °F 99% 29.55 in 5.0 mi South 11.5 mph - N/A Rain Rain
8:55 PM 38.5 °F 32.1 °F 37.8 °F 97% 29.55 in 4.0 mi South 9.2 mph - 0.02 in Rain Light Rain
9:15 PM 39.2 °F 32.0 °F 38.5 °F 97% 29.54 in 2.5 mi South 11.5 mph - N/A   Overcast
9:35 PM 39.6 °F 31.7 °F 39.2 °F 99% 29.54 in 0.8 mi South 13.8 mph - N/A   Overcast
9:55 PM 39.6 °F 33.0 °F 39.0 °F 98% 29.53 in 0.8 mi South 10.4 mph - 0.02 in Rain Light Rain
10:15 PM 39.2 °F 32.0 °F 38.8 °F 99% 29.53 in 2.5 mi South 11.5 mph - 0.02 in Rain Rain
10:35 PM 39.6 °F 32.1 °F 39.2 °F 99% 29.53 in 1.0 mi SSW 12.7 mph 20.7 mph 0.02 in   Overcast
10:55 PM 38.7 °F 32.4 °F 38.3 °F 99% 29.51 in 1.0 mi SSW 9.2 mph - 0.02 in   Drizzle
11:15 PM 38.5 °F 31.6 °F 38.3 °F 99% 29.51 in 1.0 mi SSW 10.4 mph - N/A   Overcast
11:35 PM 38.7 °F 31.8 °F 38.3 °F 99% 29.50 in 2.0 mi SSW 10.4 mph - N/A   Overcast
11:55 PM 37.8 °F 31.3 °F 37.4 °F 99% 29.50 in 1.0 mi SW 9.2 mph - N/A   Overcast